GW4022 Weather Reports


time (UTC)temp
C
wind
direction
speed
KPH
gust
KPH
rain 1hr
cm
rain 24hr
cm
rain mn
cm
humidity
%
barometer
mb
20260507043055 -17 0.0 0.0 0.00 0.00 0.00 1013.7
20260507041556 -17 0.0 0.0 0.00 0.00 0.00 1013.5
20260507040058 -17 0.0 0.0 0.00 0.00 0.00 1013.5
20260507034559 -17 0.0 0.0 0.00 0.00 0.00 1013.5
20260507033055 -17 0.0 0.0 0.00 0.00 0.00 1013.3
20260507031557 -17 0.0 0.0 0.00 0.00 0.00 1013.3
20260507030106 -17 0.0 0.0 0.00 0.00 0.00 1013.2
20260507024617 -17 0.0 0.0 0.00 0.00 0.00 1013.3
20260507023102 -17 0.0 0.0 0.00 0.00 0.00 1013.2
20260507021616 -17 0.0 0.0 0.00 0.00 0.00 1013.2
20260507020106 -17 0.0 0.0 0.00 0.00 0.00 1013.2
20260507014614 -17 0.0 0.0 0.00 0.00 0.00 1013.0
20260507013059 -17 0.0 0.0 0.00 0.00 0.00 1012.9
20260507011604 -17 0.0 0.0 0.00 0.00 0.00 1013.0
20260507010118 -17 0.0 0.0 0.00 0.00 0.00 1013.0
20260507004553 -17 0.0 0.0 0.00 0.00 0.00 1013.0
20260507003054 -17 0.0 0.0 0.00 0.00 0.00 1013.2
20260507001606 -17 0.0 0.0 0.00 0.00 0.00 1013.3
20260507000059 -17 0.0 0.0 0.00 0.00 0.00 1013.4
20260506234600 -17 0.0 0.0 0.00 0.00 0.00 1013.2
20260506233059 -17 0.0 0.0 0.00 0.00 0.00 1013.1
20260506231555 -17 0.0 0.0 0.00 0.00 0.00 1013.3
20260506230105 -17 0.0 0.0 0.00 0.00 0.00 1013.2
20260506224558 -17 0.0 0.0 0.00 0.00 0.00 1013.2
20260506223101 -17 0.0 0.0 0.00 0.00 0.00 1013.2
20260506221610 -17 0.0 0.0 0.00 0.00 0.00 1013.2
20260506220057 -17 0.0 0.0 0.00 0.00 0.00 1013.3
20260506214559 -17 0.0 0.0 0.00 0.00 0.00 1013.2
20260506213054 -17 0.0 0.0 0.00 0.00 0.00 1013.4
20260506211554 -17 0.0 0.0 0.00 0.00 0.00 1013.4
20260506210059 -17 0.0 0.0 0.00 0.00 0.00 1013.4
20260506204555 -17 0.0 0.0 0.00 0.00 0.00 1013.4
20260506203059 15 0.0 0.0 0.00 0.00 0.00 90 1013.0
20260506201617 15 0.0 0.0 0.00 0.00 0.00 90 1013.1
20260506200058 15 0.0 0.0 0.00 0.00 0.00 90 1013.1
20260506194559 15 0.0 0.0 0.00 0.00 0.00 89 1013.0
20260506193056 15 0.0 0.0 0.00 0.00 0.00 89 1012.9
20260506191558 15 0.0 0.0 0.00 0.00 0.00 88 1012.6
20260506190054 15 0.0 0.0 0.00 0.00 0.00 87 1012.5
20260506184601 15 0.0 0.0 0.00 0.00 0.00 86 1012.4
20260506183059 15 0.0 0.0 0.00 0.00 0.00 86 1012.2
20260506181555 16 0.0 0.0 0.00 0.00 0.00 85 1012.2
20260506180056 16 0.0 0.0 0.00 0.00 0.00 83 1012.4
20260506174558 16 0.0 0.0 0.00 0.00 0.00 83 1012.2
20260506173120 16 0.0 0.0 0.00 0.00 0.00 82 1012.2
20260506171559 16 0.0 0.0 0.00 0.00 0.00 80 1012.0
20260506170057 16 0.0 0.0 0.00 0.00 0.00 79 1011.9
20260506164555 17 0.0 0.0 0.00 0.00 0.00 80 1011.8
20260506163109 17 0.0 0.0 0.00 0.00 0.00 79 1011.9
20260506161600 17 0.0 0.0 0.00 0.00 0.00 78 1012.0
20260506160057 18 0.0 0.0 0.00 0.00 0.00 79 1012.1
20260506154602 18 0.0 0.0 0.00 0.00 0.00 77 1012.0
20260506153056 18 0.0 0.0 0.00 0.00 0.00 77 1012.0
20260506151555 18 0.0 0.0 0.00 0.00 0.00 79 1011.9
20260506150057 17 0.0 0.0 0.00 0.00 0.00 82 1012.0
20260506144559 17 0.0 0.0 0.00 0.00 0.00 84 1012.1
20260506143100 17 0.0 0.0 0.00 0.00 0.00 84 1012.1
20260506141557 17 0.0 0.0 0.00 0.00 0.00 82 1012.1
20260506134557 17 0.0 0.0 0.00 0.00 0.00 82 1012.2
20260506133101 17 0.0 0.0 0.00 0.00 0.00 77 1012.3
20260506131558 18 0.0 0.0 0.00 0.00 0.00 75 1012.4
20260506130057 18 0.0 0.0 0.00 0.00 0.00 71 1012.7
20260506124600 18 0.0 0.0 0.00 0.00 0.00 70 1012.5
20260506123058 19 0.0 0.0 0.00 0.00 0.00 68 1012.7
20260506121602 18 0.0 0.0 0.00 0.00 0.00 71 1012.5
20260506120110 18 0.0 0.0 0.00 0.00 0.00 68 1012.7
20260506114619 19 0.0 0.0 0.00 0.00 0.00 68 1012.2
20260506113058 19 0.0 0.0 0.00 0.00 0.00 66 1012.2
20260506111557 19 0.0 0.0 0.00 0.00 0.00 68 1012.4
20260506110113 18 0.0 0.0 0.00 0.00 0.00 71 1012.6
20260506104555 17 0.0 0.0 0.00 0.00 0.00 73 1012.6
20260506103055 17 0.0 0.0 0.00 0.00 0.00 70 1012.8
20260506101557 18 0.0 0.0 0.00 0.00 0.00 67 1012.7
20260506100054 18 0.0 0.0 0.00 0.00 0.00 63 1012.7
20260506094557 19 0.0 0.0 0.00 0.00 0.00 66 1012.6
20260506093113 19 0.0 0.0 0.00 0.00 0.00 66 1012.2
20260506091601 19 0.0 0.0 0.00 0.00 0.00 65 1012.4
20260506090121 18 0.0 0.0 0.00 0.00 0.00 70 1012.5
20260506084558 17 0.0 0.0 0.00 0.00 0.00 74 1012.2
20260506083101 17 0.0 0.0 0.00 0.00 0.00 79 1012.2
20260506081601 16 0.0 0.0 0.00 0.00 0.00 83 1012.2
20260506080111 15 0.0 0.0 0.00 0.00 0.00 84 1012.2
20260506073107 14 0.0 0.0 0.00 0.00 0.00 88 1012.1
20260506071557 14 0.0 0.0 0.00 0.00 0.00 88 1012.1
20260506061605 12 0.0 0.0 0.00 0.00 0.00 91 1012.0
20260506060112 12 0.0 0.0 0.00 0.00 0.00 92 1012.2
20260506044611 -17 0.0 0.0 0.00 0.00 0.00 1012.2